Location: *
(41.7492°S, 135.4150°W)
Time: 18:24:51
(UTC+00:00)

ADEOS Rocket - Pass Details

Date: 20 September 2021
Orbit: 859 x 1306 km, 98.8° (Epoch: 15 October)

Event Time Altitude Azimuth Distance (km) Brightness Sun altitude
Rises 13:11:40 0° 183° (S) 3,479 6.1 -19.6°
Reaches altitude 10° 13:14:52 10° 203° (SSW) 2,555 5.1 -19.0°
Enters shadow 13:18:03 17° 237° (WSW) 2,145 4.4 -18.4°
